Regional Weather Roundup
Issued by NWS Charleston, SC

Current Version | Previous Version | Text Only | Print | Product List | Glossary Off
Versions: 1 2 3 4 5 6 7 8 9 10 11 12 13 14 15 16 17 18 19 20 21 22 23 24 25 26 27 28 29 30 31 32 33 34 35 36 37 38 39 40 41 42 43 44 45 46 47 48 49 50
000 ASUS42 KCHS 010812 RWRCHS REGIONAL WEATHER ROUNDUP NATIONAL WEATHER SERVICE CHARLESTON SC 400 AM EDT TUE SEP 01 2015 NOTE: "FAIR" INDICATES FEW OR NO CLOUDS BELOW 12,000 FEET WITH NO SIGNIFICANT WEATHER AND/OR OBSTRUCTIONS TO VISIBILITY. NOT ALL STATIONS ARE QUALITY CONTROLLED BY THE NATIONAL WEATHER SERVICE. USE DATA WITH CAUTION...ESPECIALLY DEWPOINT OBSERVATIONS. SCZ027-030-031-034>040-042>050-010900- ...SOUTHEAST SOUTH CAROLINA... CITY SKY/WX TMP DP RH WIND PRES REMARKS N CHARLESTON PTCLDY 73 70 90 W3 30.06F WATERFRONT PRK N/A 77 74 91 CALM 30.04F MOUNT PLEASANT FAIR 73 73 100 CALM 30.06F FOG JOHNS ISLAND FAIR 73 72 94 CALM 30.06F PINOPOLIS N/A 77 73 88 W5 29.98F MONCKS CORNER FAIR 72 68 88 CALM 30.06F FOG SUMMERVILLE FAIR 70 70 100 CALM 30.08S BEAUFORT MCAS CLEAR 73 71 93 CALM 30.07S BEAUFORT ARPT FAIR 73 73 100 CALM 30.06S HILTON HEAD IS CLEAR 73 73 100 CALM 30.07F WALTERBORO SUNNY 70 68 94 CALM 30.08S ALLENDALE FAIR 68 68 100 CALM 30.07S ...SOUTHERN MIDLANDS AND PEE DEE... CITY SKY/WX TMP DP RH WIND PRES REMARKS GEORGETOWN NOT AVBL KINGSTREE NOT AVBL ORANGEBURG CLEAR 70 68 93 CALM 30.08S BARNWELL FAIR 70 68 94 CALM 30.08F AIKEN FAIR 66 64 94 CALM 30.12S MANNING FAIR 68 68 100 CALM 30.07F COLUMBIA CLEAR 71 67 87 SW3 30.07S SUMTER CLEAR 71 69 95 CALM 30.05F FLORENCE CLEAR 69 67 93 CALM 30.07S MYRTLE BEACH CLEAR 72 66 83 W3 30.08S N MYRTLE BEACH CLOUDY 73 72 96 CALM 30.05S FOG $$ GAZ063-065-086>088-099>101-113>116-118-119-134>141-150-010900- ...SOUTHEAST GEORGIA... CITY SKY/WX TMP DP RH WIND PRES REMARKS SAVANNAH ARPT MOCLDY 73 71 93 N3 30.06F HUNTER AAF PTCLDY 74 74 100 CALM 30.03F FORT STEWART PTCLDY 74 71 93 CALM 30.04F STATESBORO PTCLDY 67 32 26 CALM 30.07F SYLVANIA SUNNY 68 68 100 CALM 30.08F FOG CLAXTON NOT AVBL ...CSRA...CENTRAL AND FAR SOUTHEAST GEORGIA... CITY SKY/WX TMP DP RH WIND PRES REMARKS THOMSON CLEAR 68 68 100 CALM 30.13S AUGUSTA-BUSH PTCLDY 68 67 96 CALM 30.06F AUGUSTA-DANIEL CLEAR 75 68 78 CALM 30.09S SWAINSBORO FAIR N/A N/A N/A CALM 30.08S VIDALIA CLEAR 70 70 100 CALM 30.07F EASTMAN N/A 69 69 100 CALM 30.10S FOG HAZLEHURST FAIR 74 74 100 CALM 30.06S ALMA CLEAR 72 71 97 CALM 30.05F WAYCROSS MOCLDY 78 78 100 E3 30.05S JESUP FAIR 77 75 94 CALM 30.05F BAXLEY FAIR 72 72 100 CALM 30.05F BRUNSWICK MOCLDY 72 72 100 CALM 30.05F SAINT SIMONS MOCLDY 76 75 97 CALM 30.04F $$ SCZ027-028-034-036>038-045-046-048>050-GAZ119-141-010900- ...LAKE AND SUPPLEMENTAL COASTAL OBSERVATIONS... STATION/POSITION TIME TEMP WIND PRES WAVE SWELL AIR SEA DIR/SP/G HT/PER HT/PER/DIR (UTC) (F) (DEG/KT/KT) (MB) (FT/S) (FT/S/D) UPR LAKE MARION NOT AVBL WINYAH BAY 0645 74 300/ 3 1017.0 LAKE MURRAY 0700 75 300/ 3/ 5 1017.9F ACE BASIN NERRS NOT AVBL FORT PULASKI 0700 79 83 360/ 3/ 3 N/A SAPELO ISLAND 0700 77 CALM 1018.0S $$ ANZ835-935-AMZ111-154-330-350-352-354-370-450-454-472-010900- ...C-MAN AND BUOY OBSERVATIONS... STATION/POSITION TIME TEMP WIND PRES WAVE SWELL AIR SEA DIR/SP/G HT/PER HT/PER/DIR (UTC) (F) (DEG/KT/KT) (MB) (FT/S) (FT/S/D) BUOY 41004 0750 82 82 260/ 6/ 8 1017.3F 3/ 8 3/ 8 BUOY 41008 0750 82 85 80/ 2/ 4 1017.8F 2/ 8 2/ 90/ 8 FOLLY BEACH CMAN 0800 75 300/ 3/ 4 1017.8F CAPERS NEARSHORE 0708 80 310/ 4/ 6 1018.3F FRIPP NEARSHORE 0700 81 CALM / 2 1018.0F STATION/POSITION TIME TEMP WIND PRES WAVE SWELL AIR SEA DIR/SP/G HT/PER HT/PER/DIR (UTC) (F) (DEG/KT/KT) (MB) (FT/S) (FT/S/D) 5E ST. MARYS GA 0751 85 N/A 2/ 9 FRYING PAN BUOY 0750 80 81 250/ 10/ 12 1017.8F 3/ 6 3/170/ 6 BUOY 41025 0750 78 84 210/ 8/ 12 1016.6S 4/ 8 3/150/ 8 CAPE LOOKOUT NC 0700 78 260/ 6/ 6 1016.0F BUOY 41002 0750 84 84 230/ 8/ 10 1018.2F 4/ 7 3/200/ 7 BUOY 41010 0720 84 85 170/ 6/ 8 1017.9F ST AUGUSTINE FL 0800 79 84 220/ 2/ 3 1017.6F $$

USA.gov is the U.S. government's official web portal to all federal, state and local government web resources and services.